Date String (YYYY-MM-DD hh:mm:ss) UTC,Instrument flags,Ambient pressure (hPa),Sample flow (lpm),Bypass flow (lpm),Sample temperature (°C),Ambient temperature (°C),ASC tube jacket temperature (°C),LED temperature (°C),Box temperature (°C),Sample RH (%),Span deviation,Mass concentration (μg/m³),Mass concentration (μg/m³),Mass concentration (μg/m³)
DateTimeUTC,F1_M11,P_M11,Q1_M11,Q2_M11,T1_M11,T2_M11,T3_M11,T4_M11,T5_M11,U1_M11,ZSPAN_M11,X0_M11,X2_M11,X1_M11
2022-02-07 13:00:00,,0833.3,5.01,0.00,22.1,21.3,00.0,31.3,23.7,07.3,0000.0,0000.77,0000.52,0000.42
2022-02-07 13:01:00,,0833.2,5.00,0.00,22.1,21.3,00.0,31.2,23.7,07.3,0000.0,0000.83,0000.54,0000.43
2022-02-07 13:02:00,,0833.3,5.01,0.00,22.1,21.7,00.0,31.3,23.8,07.3,0000.0,0000.84,0000.55,0000.44
2022-02-07 13:03:00,,0833.3,4.99,0.00,22.2,22.4,00.0,31.3,24.1,07.3,0000.0,0000.86,0000.55,0000.44
2022-02-07 13:04:00,,0833.3,4.99,0.00,22.4,23.1,00.0,31.3,24.3,07.3,0000.0,0001.87,0000.56,0000.44
2022-02-07 13:05:00,,0833.3,5.01,0.00,22.5,22.9,00.0,31.3,24.3,07.3,0000.0,0003.12,0000.56,0000.45
2022-02-07 13:06:00,,0833.4,5.00,0.00,22.5,22.7,00.0,31.3,24.3,07.3,0000.0,0003.15,0000.58,0000.45
2022-02-07 13:07:00,,0833.4,5.00,0.00,22.4,22.4,00.0,31.3,24.2,07.2,0000.0,0003.15,0000.58,0000.46
2022-02-07 13:08:00,,0833.4,5.00,0.00,22.4,22.2,00.0,31.4,24.2,07.2,0000.0,0003.14,0000.58,0000.46
2022-02-07 13:09:00,,0833.4,5.00,0.00,22.4,22.1,00.0,31.4,24.1,07.3,0000.0,0003.13,0000.59,0000.48
2022-02-07 13:10:00,,0833.4,5.01,0.00,22.4,21.9,00.0,31.3,24.0,07.3,0000.0,0003.04,0000.57,0000.48
2022-02-07 13:11:00,,0833.4,5.00,0.00,22.3,21.8,00.0,31.3,24.0,07.3,0000.0,0003.06,0000.58,0000.49
2022-02-07 13:12:00,,0833.4,5.00,0.00,22.3,21.7,00.0,31.3,24.0,07.3,0000.0,0003.02,0000.57,0000.49
2022-02-07 13:13:00,,0833.4,4.99,0.00,22.3,21.6,00.0,31.3,23.9,07.3,0000.0,0003.06,0000.59,0000.50
2022-02-07 13:14:00,,0833.4,5.01,0.00,22.2,21.5,00.0,31.3,23.9,07.3,0000.0,0003.08,0000.60,0000.51
2022-02-07 13:15:00,,0833.4,5.00,0.00,22.2,21.5,00.0,31.3,23.9,07.3,0000.0,0002.47,0000.62,0000.52
2022-02-07 13:16:00,,0833.5,4.99,0.00,22.2,21.4,00.0,31.3,23.8,07.3,0000.0,0000.88,0000.62,0000.52
2022-02-07 13:17:00,,0833.5,5.01,0.00,22.1,21.4,00.0,31.3,23.8,07.3,0000.0,0000.91,0000.63,0000.53
2022-02-07 13:18:00,,0833.4,4.99,0.00,22.1,21.5,00.0,31.2,23.8,07.3,0000.0,0000.92,0000.64,0000.53
2022-02-07 13:19:00,,0833.4,5.01,0.00,22.2,22.1,00.0,31.3,24.0,07.3,0000.0,0000.98,0000.66,0000.54
2022-02-07 13:20:00,,0833.4,4.99,0.00,22.4,22.9,00.0,31.3,24.3,07.2,0000.0,0000.98,0000.66,0000.54
2022-02-07 13:21:00,,0833.5,5.01,0.00,22.5,23.1,00.0,31.3,24.4,07.2,0000.0,0000.99,0000.67,0000.54
2022-02-07 13:22:00,,0833.5,4.99,0.00,22.5,22.9,00.0,31.4,24.4,07.1,0000.0,0001.02,0000.69,0000.54
2022-02-07 13:23:00,,0833.5,5.01,0.00,22.5,22.6,00.0,31.4,24.3,07.2,0000.0,0001.02,0000.70,0000.55
2022-02-07 13:24:00,,0833.5,5.00,0.00,22.5,22.4,00.0,31.4,24.2,07.2,0000.0,0001.00,0000.69,0000.54
2022-02-07 13:25:00,,0833.5,4.99,0.00,22.4,22.2,00.0,31.4,24.2,07.2,0000.0,0001.01,0000.69,0000.55
2022-02-07 13:26:00,,0833.5,5.00,0.00,22.4,22.0,00.0,31.4,24.1,07.3,0000.0,0000.97,0000.67,0000.54
2022-02-07 13:27:00,,0833.5,5.00,0.00,22.4,21.9,00.0,31.4,24.1,07.4,0000.0,0000.94,0000.66,0000.53
2022-02-07 13:28:00,,0833.5,5.00,0.00,22.3,21.8,00.0,31.4,24.0,07.6,0000.0,0000.88,0000.63,0000.52
2022-02-07 13:29:00,,0833.5,5.01,0.00,22.3,21.7,00.0,31.3,24.0,07.5,0000.0,0000.91,0000.63,0000.52
2022-02-07 13:30:00,,0833.5,4.99,0.00,22.3,21.6,00.0,31.3,23.9,07.5,0000.0,0000.92,0000.62,0000.51
2022-02-07 13:31:00,,0833.5,5.02,0.00,22.2,21.6,00.0,31.3,23.9,07.4,0000.0,0000.92,0000.62,0000.50
2022-02-07 13:32:00,,0833.6,4.99,0.00,22.2,21.5,00.0,31.3,23.9,07.4,0000.0,0000.94,0000.62,0000.49
2022-02-07 13:33:00,,0833.6,5.00,0.00,22.2,21.5,00.0,31.3,23.8,07.4,0000.0,0000.91,0000.60,0000.48
2022-02-07 13:34:00,,0833.6,5.00,0.00,22.2,21.4,00.0,31.3,23.8,07.4,0000.0,0000.88,0000.57,0000.47
2022-02-07 13:35:00,,0833.6,5.03,0.00,22.1,21.4,00.0,31.3,23.7,07.4,0000.0,0000.86,0000.56,0000.46
2022-02-07 13:36:00,,0833.5,5.00,0.00,22.1,21.4,00.0,31.3,23.8,07.4,0000.0,0000.81,0000.55,0000.46
2022-02-07 13:37:00,,0833.6,4.98,0.00,22.2,22.0,00.0,31.3,23.9,07.4,0000.0,0000.83,0000.55,0000.46
2022-02-07 13:38:00,,0833.5,5.01,0.00,22.3,22.7,00.0,31.3,24.2,07.3,0000.0,0000.86,0000.57,0000.47
2022-02-07 13:39:00,,0833.5,5.00,0.00,22.4,23.1,00.0,31.3,24.4,07.3,0000.0,0000.86,0000.57,0000.47
2022-02-07 13:40:00,,0833.5,4.99,0.00,22.5,22.8,00.0,31.3,24.4,07.2,0000.0,0000.80,0000.55,0000.46
2022-02-07 13:41:00,,0833.4,5.01,0.00,22.5,22.6,00.0,31.4,24.3,07.2,0000.0,0000.72,0000.52,0000.45
2022-02-07 13:42:00,,0833.4,4.98,0.00,22.4,22.4,00.0,31.4,24.2,07.2,0000.0,0000.67,0000.50,0000.45
2022-02-07 13:43:00,,0833.4,5.00,0.00,22.4,22.2,00.0,31.4,24.1,07.2,0000.0,0000.66,0000.49,0000.44
2022-02-07 13:44:00,,0833.4,5.00,0.00,22.4,22.0,00.0,31.4,24.1,07.2,0000.0,0000.66,0000.49,0000.45
2022-02-07 13:45:00,,0833.4,5.00,0.00,22.4,21.9,00.0,31.4,24.0,07.3,0000.0,0000.74,0000.52,0000.46
2022-02-07 13:46:00,,0833.4,4.99,0.00,22.3,21.8,00.0,31.3,24.0,07.3,0000.0,0000.78,0000.54,0000.46
2022-02-07 13:47:00,,0833.4,5.00,0.00,22.3,21.7,00.0,31.3,24.0,07.3,0000.0,0000.80,0000.55,0000.46
2022-02-07 13:48:00,,0833.4,5.01,0.00,22.3,21.6,00.0,31.3,23.9,07.3,0000.0,0000.91,0000.57,0000.46
2022-02-07 13:49:00,,0833.4,4.99,0.00,22.2,21.5,00.0,31.3,23.9,07.3,0000.0,0000.92,0000.57,0000.45
2022-02-07 13:50:00,,0833.4,4.99,0.00,22.2,21.5,00.0,31.3,23.8,07.3,0000.0,0000.94,0000.57,0000.45
2022-02-07 13:51:00,,0833.4,5.00,0.00,22.2,21.4,00.0,31.3,23.8,07.2,0000.0,0000.93,0000.57,0000.45
2022-02-07 13:52:00,,0833.4,5.00,0.00,22.1,21.4,00.0,31.3,23.7,07.2,0000.0,0000.93,0000.57,0000.44
2022-02-07 13:53:00,,0833.5,5.01,0.00,22.1,21.4,00.0,31.2,23.7,07.2,0000.0,0000.96,0000.58,0000.45
2022-02-07 13:54:00,,0833.5,5.00,0.00,22.2,21.9,00.0,31.3,23.9,07.2,0000.0,0000.96,0000.58,0000.45
2022-02-07 13:55:00,,0833.5,4.99,0.00,22.3,22.6,00.0,31.3,24.2,07.1,0000.0,0000.93,0000.57,0000.45
2022-02-07 13:56:00,,0833.5,5.01,0.00,22.4,23.0,00.0,31.3,24.4,07.1,0000.0,0000.91,0000.56,0000.44
2022-02-07 13:57:00,,0833.5,5.01,0.00,22.5,22.9,00.0,31.3,24.3,07.0,0000.0,0000.86,0000.53,0000.43
2022-02-07 13:58:00,,0833.5,5.00,0.00,22.5,22.6,00.0,31.4,24.3,07.0,0000.0,0000.88,0000.53,0000.42
2022-02-07 13:59:00,,0833.5,5.00,0.00,22.4,22.4,00.0,31.4,24.2,07.1,0000.0,0000.82,0000.52,0000.42
